Weather History for Brooksville, FL

Change the Weather History Date:

Tuesday, March 5, 2013

  Actual Average Record
Temperature  
Mean Temperature 54 °F -  
Max Temperature 73 °F 73 °F 84 °F (1997)
Min Temperature 34 °F 49 °F 30 °F (1999)
Degree Days  
Heating Degree Days 12    
Growing Degree Days 4 (Base 50)    
Moisture  
Dew Point 45 °F    
Average Humidity 66    
Maximum Humidity 89    
Minimum Humidity 35    
Precipitation  
Precipitation 0.00 in - - ()
Sea Level Pressure  
Sea Level Pressure 30.13 in    
Wind  
Wind Speed 4 mph (SW)    
Max Wind Speed 18 mph    
Max Gust Speed 23 mph    
Visibility 10 miles    
Events      
Averages and records for this station are not official NWS values.
T = Trace of Precipitation, MM = Missing Value Source: NWS Daily Summary

Daily Weather History Graph

Daily Weather History Graph

Search for Another Location

Airport:

Trip Planner

Search our weather history database for the weather conditions in past years. The results will help you decide how hot, cold, wet, or windy it might be!

Date:

Astronomy

Mar. 05, 2013 Rise Set
Actual Time 6:50 AM EST 6:32 PM EST
Civil Twilight 6:26 AM EST 6:56 PM EST
Nautical Twilight 5:59 AM EST 7:23 PM EST
Astronomical Twilight 5:32 AM EST 7:50 PM EST
Moon 1:40 AM EST (3/5) 12:31 PM EST (3/5)
Length of Visible Light 12h 29m
Length of Day
11h 42m
Last Quarter, 41% of the Moon is Illuminated
Mar 5
Last Quarter
Mar 11
New
Mar 19
First Quarter
Mar 27
Full
Apr 3
Last Quarter

Hourly Weather History & Observations

Time (EST) Temp. Dew Point Humidity Pressure Visibility Wind Dir Wind Speed Gust Speed Precip Events Conditions
12:53 AM 39.9 °F 34.0 °F 79% 30.16 in 10.0 mi Calm Calm - N/A   Clear
2:53 AM 37.0 °F 34.0 °F 89% 30.15 in 10.0 mi Calm Calm - N/A   Clear
3:53 AM 36.0 °F 33.1 °F 89% 30.15 in 10.0 mi Calm Calm - N/A   Clear
4:53 AM 35.1 °F 30.9 °F 85% 30.15 in 10.0 mi Calm Calm - N/A   Clear
5:53 AM 35.1 °F 30.9 °F 85% 30.17 in 10.0 mi Calm Calm - N/A   Clear
6:53 AM 34.0 °F 30.9 °F 89% 30.17 in 10.0 mi Calm Calm - N/A   Clear
8:53 AM 54.0 °F 41.0 °F 62% 30.20 in 10.0 mi South 5.8 mph - N/A   Clear
9:53 AM 61.0 °F 45.0 °F 56% 30.20 in 10.0 mi Variable 3.5 mph - N/A   Clear
10:53 AM 64.9 °F 50.0 °F 58% 30.20 in 10.0 mi Calm Calm - N/A   Clear
11:53 AM 66.9 °F 48.9 °F 52% 30.19 in 10.0 mi SSW 6.9 mph - N/A   Partly Cloudy
12:53 PM 71.1 °F 50.0 °F 47% 30.15 in 10.0 mi West 11.5 mph 16.1 mph N/A   Clear
1:53 PM 73.0 °F 46.0 °F 38% 30.13 in 10.0 mi SSW 11.5 mph - N/A   Clear
2:53 PM 73.9 °F 45.0 °F 35% 30.12 in 10.0 mi WSW 18.4 mph 23.0 mph N/A   Clear
3:53 PM 73.0 °F 48.9 °F 42% 30.11 in 10.0 mi West 17.3 mph 23.0 mph N/A   Clear
4:53 PM 71.1 °F 48.9 °F 45% 30.10 in 10.0 mi WSW 13.8 mph - N/A   Clear
5:53 PM 70.0 °F 46.9 °F 44% 30.09 in 10.0 mi SW 10.4 mph 19.6 mph N/A   Clear
6:53 PM 64.9 °F 52.0 °F 63% 30.08 in 10.0 mi SSW 8.1 mph - N/A   Clear
7:53 PM 62.1 °F 53.1 °F 72% 30.06 in 10.0 mi South 9.2 mph - N/A   Clear
8:53 PM 63.0 °F 55.0 °F 75% 30.06 in 10.0 mi South 10.4 mph - N/A   Clear
9:53 PM 63.0 °F 57.0 °F 81% 30.06 in 10.0 mi SSW 10.4 mph - N/A   Mostly Cloudy
10:53 PM 63.0 °F 57.9 °F 84% 30.06 in 10.0 mi SW 9.2 mph - N/A   Overcast
11:53 PM 62.1 °F 57.9 °F 86% 30.04 in 10.0 mi SSW 6.9 mph - N/A   Clear